Location: Geyikbay?r?
(36.8756°N, 30.4583°E)
Time: 11:38:32
(UTC+00:00)

Cosmos 1844 Rocket - Pass Details

Date: 05 August 2024
Orbit: 822 x 845 km, 71.0° (Epoch: 12 September)

Event Time Altitude Azimuth Distance (km) Brightness Sun altitude
Rises 22:29:53 0° 350° (N) 3,392 6.7 -36.1°
Reaches altitude 10° 22:32:49 10° 4° (N) 2,458 5.9 -36.1°
Maximum altitude 22:37:20 24° 58° (ENE) 1,668 4.5 -35.9°
Enters shadow 22:37:31 24° 61° (ENE) 1,669 4.5 -35.9°
